Location: Campo Claro
(10.4907°N, 66.8285°W)
Time: 03:57:28
(UTC+00:00)

BREEZE-M DEB (TANK) - Pass Details

Date: 29 June 2022
Orbit: 342 x 14877 km, 49.6° (Epoch: 14 August)

Event Time Altitude Azimuth Distance (km) Brightness Sun altitude
Rises 20:11:52 0° 313° (NW) 13,658 11.2 35.9°
Reaches altitude 10° 20:25:01 10° 320° (NW) 14,583 11.5 32.9°
Maximum altitude 22:52:09 76° 58° (ENE) 10,072 9.6 -0.7°
Drops below altitude 10° 23:28:19 10° 136° (SE) 6,924 8.3 -8.8°
Enters shadow 23:29:52 - 137° (SE) 7,031 8.3 -9.1°
